| time (UTC) | temp F | wind direction | speed MPH | gust MPH | rain 1hr in | rain 24hr in | rain mn in | humidity % | barometer mb |
| 20260906022059 | 76 | 204 | 0.0 | 0.0 | 0.00 | 0.00 | 0.00 | 53 | 986.2 |
| 20260906021602 | 77 | 204 | 0.0 | 2.0 | 0.00 | 0.00 | 0.00 | 52 | 986.2 |
| 20260906021102 | 77 | 204 | 0.0 | 2.0 | 0.00 | 0.00 | 0.00 | 52 | 986.0 |
| 20260906020600 | 78 | 204 | 0.0 | 2.0 | 0.00 | 0.00 | 0.00 | 54 | 986.0 |
| 20260906020059 | 78 | 204 | 0.0 | 2.0 | 0.00 | 0.00 | 0.00 | 53 | 986.0 |
| 20260906015603 | 78 | 204 | 0.0 | 2.0 | 0.00 | 0.00 | 0.00 | 53 | 986.0 |
| 20260906015059 | 79 | 204 | 1.0 | 3.0 | 0.00 | 0.00 | 0.00 | 53 | 986.1 |
| 20260906014557 | 79 | 204 | 1.0 | 3.0 | 0.00 | 0.00 | 0.00 | 50 | 986.1 |
| 20260906014100 | 79 | 204 | 1.0 | 3.0 | 0.00 | 0.00 | 0.00 | 51 | 986.2 |
| 20260906013557 | 79 | 204 | 1.0 | 4.0 | 0.00 | 0.00 | 0.00 | 51 | 986.2 |
| 20260906013057 | 79 | 204 | 2.0 | 5.0 | 0.00 | 0.00 | 0.00 | 50 | 986.3 |
| 20260906012556 | 80 | 204 | 2.0 | 6.0 | 0.00 | 0.00 | 0.00 | 49 | 986.4 |
| 20260906012056 | 80 | 196 | 3.0 | 7.0 | 0.00 | 0.00 | 0.00 | 47 | 986.3 |
| 20260906011556 | 80 | 189 | 4.0 | 7.0 | 0.00 | 0.00 | 0.00 | 46 | 986.4 |
| 20260906011056 | 81 | 196 | 4.0 | 7.0 | 0.00 | 0.00 | 0.00 | 44 | 986.4 |
| 20260906010556 | 81 | 179 | 4.0 | 8.0 | 0.00 | 0.00 | 0.00 | 42 | 986.3 |
| 20260906010139 | 81 | 203 | 4.0 | 8.0 | 0.00 | 0.00 | 0.00 | 41 | 986.3 |
| 20260906005555 | 82 | 203 | 5.0 | 8.0 | 0.00 | 0.00 | 0.00 | 39 | 986.3 |
| 20260906005059 | 82 | 198 | 3.0 | 8.0 | 0.00 | 0.00 | 0.00 | 42 | 986.3 |
| 20260906004614 | 83 | 205 | 4.0 | 8.0 | 0.00 | 0.00 | 0.00 | 40 | 986.2 |
| 20260906004054 | 83 | 192 | 3.0 | 8.0 | 0.00 | 0.00 | 0.00 | 40 | 986.1 |
| 20260906003555 | 83 | 222 | 5.0 | 7.0 | 0.00 | 0.00 | 0.00 | 39 | 986.0 |
| 20260906003057 | 83 | 190 | 4.0 | 7.0 | 0.00 | 0.00 | 0.00 | 38 | 986.0 |
| 20260906002554 | 83 | 199 | 4.0 | 8.0 | 0.00 | 0.00 | 0.00 | 38 | 986.0 |
| 20260906002056 | 84 | 176 | 4.0 | 8.0 | 0.00 | 0.00 | 0.00 | 39 | 986.0 |
| 20260906001603 | 84 | 184 | 4.0 | 9.0 | 0.00 | 0.00 | 0.00 | 38 | 985.9 |
| 20260906001054 | 84 | 180 | 5.0 | 9.0 | 0.00 | 0.00 | 0.00 | 38 | 985.9 |
| 20260906000555 | 85 | 165 | 5.0 | 7.0 | 0.00 | 0.00 | 0.00 | 38 | 985.9 |
| 20260906000054 | 85 | 197 | 4.0 | 7.0 | 0.00 | 0.00 | 0.00 | 37 | 986.0 |
| 20260905235554 | 85 | 171 | 5.0 | 8.0 | 0.00 | 0.00 | 0.00 | 37 | 986.0 |
| 20260905235054 | 85 | 205 | 4.0 | 8.0 | 0.00 | 0.00 | 0.00 | 38 | 986.0 |
| 20260905234552 | 84 | 176 | 5.0 | 9.0 | 0.00 | 0.00 | 0.00 | 37 | 986.0 |
| 20260905234052 | 85 | 204 | 6.0 | 10.0 | 0.00 | 0.00 | 0.00 | 36 | 986.0 |
| 20260905233552 | 85 | 202 | 5.0 | 10.0 | 0.00 | 0.00 | 0.00 | 35 | 986.0 |
| 20260905233052 | 86 | 193 | 5.0 | 10.0 | 0.00 | 0.00 | 0.00 | 37 | 986.0 |
| 20260905232551 | 86 | 190 | 4.0 | 9.0 | 0.00 | 0.00 | 0.00 | 37 | 985.9 |
| 20260905232054 | 86 | 196 | 5.0 | 9.0 | 0.00 | 0.00 | 0.00 | 38 | 986.0 |
| 20260905231555 | 86 | 210 | 4.0 | 8.0 | 0.00 | 0.00 | 0.00 | 37 | 986.1 |
| 20260905231050 | 87 | 173 | 4.0 | 10.0 | 0.00 | 0.00 | 0.00 | 37 | 986.0 |
| 20260905230550 | 87 | 195 | 3.0 | 7.0 | 0.00 | 0.00 | 0.00 | 35 | 986.0 |
| 20260905230050 | 86 | 188 | 3.0 | 9.0 | 0.00 | 0.00 | 0.00 | 35 | 986.2 |
| 20260905225548 | 87 | 157 | 4.0 | 10.0 | 0.00 | 0.00 | 0.00 | 35 | 986.2 |
| 20260905225048 | 86 | 212 | 3.0 | 9.0 | 0.00 | 0.00 | 0.00 | 36 | 986.3 |
| 20260905224548 | 87 | 206 | 5.0 | 9.0 | 0.00 | 0.00 | 0.00 | 36 | 986.3 |
| 20260905224052 | 87 | 178 | 5.0 | 8.0 | 0.00 | 0.00 | 0.00 | 35 | 986.3 |
| 20260905223546 | 86 | 227 | 4.0 | 10.0 | 0.00 | 0.00 | 0.00 | 37 | 986.3 |
| 20260905223053 | 86 | 193 | 5.0 | 10.0 | 0.00 | 0.00 | 0.00 | 37 | 986.4 |
| 20260905222546 | 87 | 188 | 6.0 | 9.0 | 0.00 | 0.00 | 0.00 | 38 | 986.4 |
| 20260905222045 | 87 | 216 | 4.0 | 9.0 | 0.00 | 0.00 | 0.00 | 38 | 986.5 |
| 20260905221547 | 87 | 167 | 5.0 | 9.0 | 0.00 | 0.00 | 0.00 | 37 | 986.6 |
| 20260905221045 | 87 | 180 | 4.0 | 8.0 | 0.00 | 0.00 | 0.00 | 36 | 986.5 |
| 20260905220544 | 87 | 173 | 4.0 | 10.0 | 0.00 | 0.00 | 0.00 | 37 | 986.6 |
| 20260905220044 | 87 | 187 | 3.0 | 10.0 | 0.00 | 0.00 | 0.00 | 36 | 986.6 |
| 20260905215544 | 86 | 200 | 4.0 | 10.0 | 0.00 | 0.00 | 0.00 | 40 | 986.6 |
| 20260905215043 | 86 | 196 | 5.0 | 8.0 | 0.00 | 0.00 | 0.00 | 40 | 986.6 |
| 20260905214546 | 86 | 180 | 5.0 | 9.0 | 0.00 | 0.00 | 0.00 | 39 | 986.6 |
| 20260905214042 | 86 | 182 | 5.0 | 9.0 | 0.00 | 0.00 | 0.00 | 41 | 986.5 |
| 20260905213540 | 86 | 169 | 5.0 | 11.0 | 0.00 | 0.00 | 0.00 | 43 | 986.7 |
| 20260905213041 | 86 | 182 | 5.0 | 8.0 | 0.00 | 0.00 | 0.00 | 45 | 986.7 |
| 20260905212544 | 86 | 181 | 4.0 | 12.0 | 0.00 | 0.00 | 0.00 | 45 | 986.9 |
| 20260905212039 | 86 | 145 | 6.0 | 12.0 | 0.00 | 0.00 | 0.00 | 44 | 986.9 |
| 20260905211543 | 86 | 219 | 4.0 | 11.0 | 0.00 | 0.00 | 0.00 | 46 | 986.9 |
| 20260905211040 | 86 | 159 | 5.0 | 11.0 | 0.00 | 0.00 | 0.00 | 45 | 987.0 |
| 20260905210540 | 86 | 162 | 6.0 | 10.0 | 0.00 | 0.00 | 0.00 | 44 | 987.1 |
| 20260905210052 | 86 | 221 | 5.0 | 12.0 | 0.00 | 0.00 | 0.00 | 46 | 987.0 |
| 20260905205539 | 86 | 103 | 6.0 | 11.0 | 0.00 | 0.00 | 0.00 | 46 | 987.2 |
| 20260905205039 | 86 | 163 | 6.0 | 11.0 | 0.00 | 0.00 | 0.00 | 44 | 987.1 |
| 20260905204538 | 86 | 158 | 6.0 | 9.0 | 0.00 | 0.00 | 0.00 | 44 | 987.2 |
| 20260905204037 | 86 | 148 | 6.0 | 11.0 | 0.00 | 0.00 | 0.00 | 45 | 987.2 |
| 20260905203537 | 86 | 176 | 5.0 | 11.0 | 0.00 | 0.00 | 0.00 | 45 | 987.3 |
| 20260905203038 | 86 | 176 | 4.0 | 10.0 | 0.00 | 0.00 | 0.00 | 44 | 987.3 |
| 20260905202537 | 86 | 153 | 5.0 | 11.0 | 0.00 | 0.00 | 0.00 | 45 | 987.4 |
| 20260905202036 | 86 | 161 | 6.0 | 11.0 | 0.00 | 0.00 | 0.00 | 45 | 987.3 |
| 20260905201537 | 86 | 171 | 5.0 | 10.0 | 0.00 | 0.00 | 0.00 | 42 | 987.4 |
| 20260905201034 | 86 | 236 | 5.0 | 10.0 | 0.00 | 0.00 | 0.00 | 39 | 987.5 |
| 20260905200534 | 86 | 168 | 4.0 | 11.0 | 0.00 | 0.00 | 0.00 | 41 | 987.4 |
| 20260905200104 | 86 | 175 | 6.0 | 11.0 | 0.00 | 0.00 | 0.00 | 42 | 987.4 |
| 20260905195533 | 86 | 133 | 4.0 | 10.0 | 0.00 | 0.00 | 0.00 | 42 | 987.4 |
| 20260905195035 | 86 | 174 | 5.0 | 17.0 | 0.00 | 0.00 | 0.00 | 43 | 987.5 |
| 20260905194532 | 86 | 171 | 9.0 | 17.0 | 0.00 | 0.00 | 0.00 | 42 | 987.6 |
| 20260905194031 | 86 | 123 | 4.0 | 9.0 | 0.00 | 0.00 | 0.00 | 38 | 987.5 |
| 20260905193530 | 85 | 207 | 3.0 | 7.0 | 0.00 | 0.00 | 0.00 | 39 | 987.4 |
| 20260905193037 | 85 | 202 | 3.0 | 7.0 | 0.00 | 0.00 | 0.00 | 38 | 987.5 |
| 20260905192530 | 85 | 175 | 3.0 | 6.0 | 0.00 | 0.00 | 0.00 | 37 | 987.6 |
| 20260905192030 | 85 | 174 | 3.0 | 6.0 | 0.00 | 0.00 | 0.00 | 38 | 987.6 |
| 20260905191529 | 85 | 161 | 1.0 | 7.0 | 0.00 | 0.00 | 0.00 | 41 | 987.8 |
| 20260905191027 | 85 | 161 | 2.0 | 9.0 | 0.00 | 0.00 | 0.00 | 37 | 987.8 |
| 20260905190526 | 86 | 148 | 2.0 | 8.0 | 0.00 | 0.00 | 0.00 | 36 | 987.9 |
| 20260905190027 | 86 | 161 | 4.0 | 8.0 | 0.00 | 0.00 | 0.00 | 38 | 988.0 |
| 20260905185526 | 87 | 165 | 3.0 | 5.0 | 0.00 | 0.00 | 0.00 | 37 | 987.9 |
| 20260905185024 | 86 | 86 | 1.0 | 4.0 | 0.00 | 0.00 | 0.00 | 42 | 987.8 |
| 20260905184533 | 86 | 90 | 1.0 | 6.0 | 0.00 | 0.00 | 0.00 | 37 | 987.9 |
| 20260905184022 | 86 | 96 | 2.0 | 6.0 | 0.00 | 0.00 | 0.00 | 37 | 988.0 |
| 20260905183521 | 86 | 97 | 2.0 | 6.0 | 0.00 | 0.00 | 0.00 | 39 | 988.0 |
| 20260905183031 | 86 | 166 | 1.0 | 5.0 | 0.00 | 0.00 | 0.00 | 39 | 988.1 |
| 20260905182518 | 85 | 165 | 1.0 | 5.0 | 0.00 | 0.00 | 0.00 | 40 | 988.2 |
| 20260905182017 | 84 | 168 | 1.0 | 5.0 | 0.00 | 0.00 | 0.00 | 43 | 988.3 |
| 20260905181516 | 83 | 170 | 1.0 | 5.0 | 0.00 | 0.00 | 0.00 | 42 | 988.4 |
| 20260905181014 | 83 | 300 | 0.0 | 4.0 | 0.00 | 0.00 | 0.00 | 45 | 988.4 |
| 20260905180513 | 82 | 300 | 1.0 | 4.0 | 0.00 | 0.00 | 0.00 | 45 | 988.3 |
| 20260905180010 | 81 | 298 | 0.0 | 4.0 | 0.00 | 0.00 | 0.00 | 45 | 988.3 |
| 20260905175521 | 81 | 286 | 1.0 | 4.0 | 0.00 | 0.00 | 0.00 | 44 | 988.4 |
| 20260905175009 | 82 | 101 | 1.0 | 4.0 | 0.00 | 0.00 | 0.00 | 45 | 988.5 |
| 20260905174507 | 81 | 128 | 1.0 | 3.0 | 0.00 | 0.00 | 0.00 | 46 | 988.4 |
| 20260905174006 | 80 | 133 | 0.0 | 4.0 | 0.00 | 0.00 | 0.00 | 45 | 988.4 |
| 20260905173504 | 80 | 133 | 1.0 | 4.0 | 0.00 | 0.00 | 0.00 | 45 | 988.3 |
| 20260905173002 | 80 | 132 | 1.0 | 4.0 | 0.00 | 0.00 | 0.00 | 48 | 988.3 |
| 20260905172502 | 79 | 132 | 1.0 | 3.0 | 0.00 | 0.00 | 0.00 | 48 | 988.3 |
| 20260905172100 | 79 | 133 | 1.0 | 3.0 | 0.00 | 0.00 | 0.00 | 56 | 988.4 |
| 20260905172006 | 79 | 133 | 2.0 | 3.0 | 0.00 | 0.00 | 0.00 | 55 | 988.4 |
| 20260905171559 | 78 | 133 | 1.0 | 3.0 | 0.00 | 0.00 | 0.00 | 58 | 988.4 |
| 20260905171057 | 77 | 133 | 0.0 | 3.0 | 0.00 | 0.00 | 0.00 | 59 | 988.4 |
| 20260905170556 | 76 | 133 | 1.0 | 7.0 | 0.00 | 0.00 | 0.00 | 60 | 988.3 |
| 20260905170056 | 75 | 175 | 1.0 | 5.0 | 0.00 | 0.00 | 0.00 | 60 | 988.3 |
| 20260905165553 | 74 | 169 | 1.0 | 5.0 | 0.00 | 0.00 | 0.00 | 61 | 988.3 |
| 20260905165052 | 74 | 219 | 1.0 | 3.0 | 0.00 | 0.00 | 0.00 | 61 | 988.3 |
| 20260905164550 | 73 | 219 | 1.0 | 3.0 | 0.00 | 0.00 | 0.00 | 63 | 988.3 |
| 20260905164049 | 73 | 219 | 1.0 | 5.0 | 0.00 | 0.00 | 0.00 | 65 | 988.3 |
| 20260905163547 | 72 | 219 | 2.0 | 4.0 | 0.00 | 0.00 | 0.00 | 66 | 988.3 |
| 20260905163046 | 72 | 219 | 1.0 | 4.0 | 0.00 | 0.00 | 0.00 | 68 | 988.3 |
| 20260905162545 | 71 | 137 | 0.0 | 3.0 | 0.00 | 0.00 | 0.00 | 69 | 988.3 |
| 20260905162042 | 71 | 137 | 2.0 | 4.0 | 0.00 | 0.00 | 0.00 | 69 | 988.2 |
| 20260905161541 | 70 | 137 | 2.0 | 4.0 | 0.00 | 0.00 | 0.00 | 71 | 988.3 |
| 20260905161040 | 70 | 136 | 1.0 | 4.0 | 0.00 | 0.00 | 0.00 | 71 | 988.2 |
| 20260905160539 | 69 | 133 | 1.0 | 4.0 | 0.00 | 0.00 | 0.00 | 73 | 988.2 |
| 20260905160038 | 68 | 133 | 1.0 | 3.0 | 0.00 | 0.00 | 0.00 | 74 | 988.3 |
| 20260905155536 | 68 | 133 | 1.0 | 4.0 | 0.00 | 0.00 | 0.00 | 76 | 988.1 |
| 20260905155034 | 68 | 173 | 1.0 | 5.0 | 0.00 | 0.00 | 0.00 | 76 | 988.1 |
| 20260905154532 | 67 | 173 | 1.0 | 3.0 | 0.00 | 0.00 | 0.00 | 77 | 988.0 |
| 20260905154031 | 66 | 173 | 0.0 | 0.0 | 0.00 | 0.00 | 0.00 | 81 | 987.9 |
| 20260905153533 | 65 | 173 | 0.0 | 0.0 | 0.00 | 0.00 | 0.00 | 83 | 987.9 |
| 20260905153033 | 64 | 173 | 0.0 | 0.0 | 0.00 | 0.00 | 0.00 | 83 | 987.9 |
| 20260905152530 | 63 | 173 | 0.0 | 0.0 | 0.00 | 0.00 | 0.00 | 85 | 987.9 |
| 20260905152025 | 63 | 173 | 0.0 | 0.0 | 0.00 | 0.00 | 0.00 | 86 | 988.0 |
| 20260905151524 | 62 | 173 | 0.0 | 0.0 | 0.00 | 0.00 | 0.00 | 88 | 987.9 |
| 20260905151026 | 61 | 173 | 0.0 | 0.0 | 0.00 | 0.00 | 0.00 | 90 | 987.9 |
| 20260905150524 | 60 | 173 | 0.0 | 0.0 | 0.00 | 0.00 | 0.00 | 92 | 987.8 |
| 20260905150024 | 60 | 173 | 0.0 | 0.0 | 0.00 | 0.00 | 0.00 | 93 | 987.9 |
| 20260905145520 | 60 | 173 | 0.0 | 0.0 | 0.00 | 0.00 | 0.00 | 94 | 987.8 |
| 20260905145018 | 59 | 173 | 0.0 | 0.0 | 0.00 | 0.00 | 0.00 | 94 | 987.8 |
| 20260905144517 | 59 | 173 | 0.0 | 0.0 | 0.00 | 0.00 | 0.00 | 94 | 987.8 |
| 20260905144016 | 59 | 173 | 0.0 | 0.0 | 0.00 | 0.00 | 0.00 | 95 | 987.8 |
| 20260905143516 | 58 | 173 | 0.0 | 0.0 | 0.00 | 0.00 | 0.00 | 95 | 987.7 |
| 20260905143018 | 58 | 173 | 0.0 | 0.0 | 0.00 | 0.00 | 0.00 | 95 | 987.8 |
| 20260905142516 | 57 | 173 | 0.0 | 0.0 | 0.00 | 0.00 | 0.00 | 95 | 987.7 |
| 20260905142011 | 57 | 173 | 0.0 | 0.0 | 0.00 | 0.00 | 0.00 | 94 | 987.7 |
| 20260905141513 | 57 | 173 | 0.0 | 0.0 | 0.00 | 0.00 | 0.00 | 94 | 987.6 |
| 20260905141010 | 57 | 173 | 0.0 | 0.0 | 0.00 | 0.00 | 0.00 | 94 | 987.6 |
| 20260905140515 | 56 | 173 | 0.0 | 0.0 | 0.00 | 0.00 | 0.00 | 94 | 987.6 |
| 20260905140009 | 56 | 173 | 0.0 | 0.0 | 0.00 | 0.00 | 0.00 | 94 | 987.5 |
| 20260905135510 | 56 | 173 | 0.0 | 0.0 | 0.00 | 0.00 | 0.00 | 94 | 987.4 |
| 20260905135008 | 56 | 173 | 0.0 | 0.0 | 0.00 | 0.00 | 0.00 | 93 | 987.3 |
| 20260905134517 | 57 | 173 | 0.0 | 0.0 | 0.00 | 0.00 | 0.00 | 94 | 987.3 |
| 20260905134007 | 57 | 173 | 0.0 | 0.0 | 0.00 | 0.00 | 0.00 | 94 | 987.2 |
| 20260905133510 | 57 | 173 | 0.0 | 0.0 | 0.00 | 0.00 | 0.00 | 94 | 987.1 |
| 20260905133006 | 57 | 173 | 0.0 | 0.0 | 0.00 | 0.00 | 0.00 | 94 | 987.1 |
| 20260905132506 | 57 | 173 | 0.0 | 0.0 | 0.00 | 0.00 | 0.00 | 94 | 987.1 |
| 20260905132009 | 57 | 173 | 0.0 | 0.0 | 0.00 | 0.00 | 0.00 | 94 | 987.1 |
| 20260905131509 | 57 | 173 | 0.0 | 0.0 | 0.00 | 0.00 | 0.00 | 94 | 987.1 |
| 20260905131006 | 57 | 173 | 0.0 | 0.0 | 0.00 | 0.00 | 0.00 | 94 | 987.1 |
| 20260905130508 | 57 | 173 | 0.0 | 0.0 | 0.00 | 0.00 | 0.00 | 94 | 987.1 |
| 20260905130006 | 57 | 173 | 0.0 | 0.0 | 0.00 | 0.00 | 0.00 | 94 | 987.1 |
| 20260905125506 | 56 | 173 | 0.0 | 0.0 | 0.00 | 0.00 | 0.00 | 94 | 987.0 |
| 20260905125005 | 56 | 173 | 0.0 | 0.0 | 0.00 | 0.00 | 0.00 | 94 | 987.0 |
| 20260905124504 | 56 | 173 | 0.0 | 0.0 | 0.00 | 0.00 | 0.00 | 93 | 987.0 |
| 20260905124004 | 57 | 173 | 0.0 | 0.0 | 0.00 | 0.00 | 0.00 | 93 | 987.0 |
| 20260905123505 | 57 | 173 | 0.0 | 0.0 | 0.00 | 0.00 | 0.00 | 93 | 987.0 |
| 20260905123009 | 57 | 173 | 0.0 | 0.0 | 0.00 | 0.00 | 0.00 | 94 | 987.0 |
| 20260905122502 | 57 | 173 | 0.0 | 0.0 | 0.00 | 0.00 | 0.00 | 93 | 987.0 |
| 20260905122001 | 57 | 173 | 0.0 | 0.0 | 0.00 | 0.00 | 0.00 | 93 | 987.0 |
| 20260905121502 | 57 | 173 | 0.0 | 0.0 | 0.00 | 0.00 | 0.00 | 94 | 987.0 |
| 20260905121001 | 57 | 173 | 0.0 | 0.0 | 0.00 | 0.00 | 0.00 | 94 | 986.9 |
| 20260905120503 | 57 | 173 | 0.0 | 0.0 | 0.00 | 0.00 | 0.00 | 94 | 986.9 |
| 20260905120002 | 57 | 173 | 0.0 | 0.0 | 0.00 | 0.00 | 0.00 | 93 | 986.9 |
| 20260905115502 | 57 | 173 | 0.0 | 0.0 | 0.00 | 0.00 | 0.00 | 94 | 986.9 |
| 20260905115001 | 57 | 173 | 0.0 | 0.0 | 0.00 | 0.00 | 0.00 | 94 | 986.9 |
| 20260905114600 | 57 | 173 | 0.0 | 0.0 | 0.00 | 0.00 | 0.00 | 93 | 986.9 |
| 20260905114100 | 57 | 173 | 0.0 | 0.0 | 0.00 | 0.00 | 0.00 | 93 | 986.9 |
| 20260905113600 | 57 | 173 | 0.0 | 0.0 | 0.00 | 0.00 | 0.00 | 93 | 986.9 |
| 20260905113106 | 57 | 173 | 0.0 | 0.0 | 0.00 | 0.00 | 0.00 | 93 | 986.8 |
| 20260905112601 | 57 | 173 | 0.0 | 0.0 | 0.00 | 0.00 | 0.00 | 93 | 986.8 |
| 20260905112059 | 58 | 173 | 0.0 | 0.0 | 0.00 | 0.00 | 0.00 | 93 | 986.9 |
| 20260905111601 | 58 | 173 | 0.0 | 0.0 | 0.00 | 0.00 | 0.00 | 93 | 986.8 |
| 20260905111058 | 58 | 173 | 0.0 | 0.0 | 0.00 | 0.00 | 0.00 | 93 | 986.9 |
| 20260905110605 | 58 | 173 | 0.0 | 0.0 | 0.00 | 0.00 | 0.00 | 93 | 986.8 |
| 20260905110057 | 58 | 173 | 0.0 | 0.0 | 0.00 | 0.00 | 0.00 | 93 | 986.8 |
| 20260905105557 | 58 | 173 | 0.0 | 0.0 | 0.00 | 0.00 | 0.00 | 93 | 986.8 |
| 20260905105057 | 58 | 173 | 0.0 | 0.0 | 0.00 | 0.00 | 0.00 | 93 | 986.9 |
| 20260905104557 | 58 | 173 | 0.0 | 0.0 | 0.00 | 0.00 | 0.00 | 93 | 986.9 |
| 20260905104058 | 58 | 173 | 0.0 | 0.0 | 0.00 | 0.00 | 0.00 | 93 | 986.9 |
| 20260905103558 | 58 | 173 | 0.0 | 0.0 | 0.00 | 0.00 | 0.00 | 92 | 986.9 |
| 20260905103103 | 58 | 173 | 0.0 | 0.0 | 0.00 | 0.00 | 0.00 | 92 | 986.8 |
| 20260905102555 | 58 | 173 | 0.0 | 0.0 | 0.00 | 0.00 | 0.00 | 92 | 986.7 |
| 20260905102056 | 58 | 173 | 0.0 | 0.0 | 0.00 | 0.00 | 0.00 | 92 | 986.8 |
| 20260905101554 | 58 | 173 | 0.0 | 0.0 | 0.00 | 0.00 | 0.00 | 92 | 986.7 |
| 20260905101052 | 59 | 173 | 0.0 | 0.0 | 0.00 | 0.00 | 0.00 | 92 | 986.8 |
| 20260905100552 | 59 | 173 | 0.0 | 0.0 | 0.00 | 0.00 | 0.00 | 92 | 986.8 |
| 20260905100058 | 59 | 173 | 0.0 | 0.0 | 0.00 | 0.00 | 0.00 | 93 | 986.8 |
| 20260905095551 | 60 | 173 | 0.0 | 0.0 | 0.00 | 0.00 | 0.00 | 93 | 986.8 |
| 20260905095051 | 60 | 173 | 0.0 | 0.0 | 0.00 | 0.00 | 0.00 | 93 | 987.0 |
| 20260905094551 | 60 | 173 | 0.0 | 0.0 | 0.00 | 0.00 | 0.00 | 93 | 987.0 |
| 20260905094050 | 60 | 173 | 0.0 | 0.0 | 0.00 | 0.00 | 0.00 | 93 | 987.0 |
| 20260905093551 | 59 | 173 | 0.0 | 0.0 | 0.00 | 0.00 | 0.00 | 93 | 987.0 |
| 20260905093050 | 59 | 173 | 0.0 | 0.0 | 0.00 | 0.00 | 0.00 | 93 | 986.9 |
| 20260905092551 | 59 | 173 | 0.0 | 0.0 | 0.00 | 0.00 | 0.00 | 92 | 987.0 |
| 20260905092048 | 59 | 173 | 0.0 | 0.0 | 0.00 | 0.00 | 0.00 | 92 | 987.1 |
| 20260905091554 | 59 | 173 | 0.0 | 0.0 | 0.00 | 0.00 | 0.00 | 92 | 987.1 |
| 20260905091047 | 59 | 173 | 0.0 | 0.0 | 0.00 | 0.00 | 0.00 | 92 | 987.2 |
| 20260905090549 | 59 | 173 | 0.0 | 0.0 | 0.00 | 0.00 | 0.00 | 92 | 987.2 |
| 20260905090046 | 59 | 173 | 0.0 | 0.0 | 0.00 | 0.00 | 0.00 | 91 | 987.2 |
| 20260905085545 | 60 | 173 | 0.0 | 0.0 | 0.00 | 0.00 | 0.00 | 91 | 987.3 |
| 20260905084555 | 61 | 173 | 0.0 | 0.0 | 0.00 | 0.00 | 0.00 | 92 | 987.2 |
| 20260905084044 | 61 | 173 | 0.0 | 0.0 | 0.00 | 0.00 | 0.00 | 92 | 987.3 |
| 20260905083547 | 61 | 173 | 0.0 | 0.0 | 0.00 | 0.00 | 0.00 | 92 | 987.3 |
| 20260905083046 | 61 | 173 | 0.0 | 0.0 | 0.00 | 0.00 | 0.00 | 92 | 987.4 |
| 20260905082543 | 60 | 173 | 0.0 | 0.0 | 0.00 | 0.00 | 0.00 | 92 | 987.3 |
| 20260905082043 | 60 | 173 | 0.0 | 0.0 | 0.00 | 0.00 | 0.00 | 92 | 987.4 |
| 20260905081542 | 60 | 173 | 0.0 | 0.0 | 0.00 | 0.00 | 0.00 | 91 | 987.5 |
| 20260905081043 | 60 | 173 | 0.0 | 0.0 | 0.00 | 0.00 | 0.00 | 91 | 987.5 |
| 20260905080541 | 61 | 173 | 0.0 | 0.0 | 0.00 | 0.00 | 0.00 | 91 | 987.5 |
| 20260905080108 | 61 | 173 | 0.0 | 0.0 | 0.00 | 0.00 | 0.00 | 91 | 987.6 |
| 20260905075539 | 61 | 173 | 0.0 | 0.0 | 0.00 | 0.00 | 0.00 | 91 | 987.6 |
| 20260905075041 | 61 | 173 | 0.0 | 0.0 | 0.00 | 0.00 | 0.00 | 91 | 987.5 |
| 20260905074539 | 61 | 173 | 0.0 | 0.0 | 0.00 | 0.00 | 0.00 | 91 | 987.5 |
| 20260905074038 | 61 | 173 | 0.0 | 0.0 | 0.00 | 0.00 | 0.00 | 91 | 987.6 |
| 20260905073539 | 61 | 173 | 0.0 | 0.0 | 0.00 | 0.00 | 0.00 | 91 | 987.6 |
| 20260905073038 | 61 | 173 | 0.0 | 0.0 | 0.00 | 0.00 | 0.00 | 90 | 987.6 |
| 20260905072542 | 61 | 173 | 0.0 | 0.0 | 0.00 | 0.00 | 0.00 | 90 | 987.7 |
| 20260905072037 | 61 | 173 | 0.0 | 0.0 | 0.00 | 0.00 | 0.00 | 89 | 987.7 |
| 20260905071536 | 61 | 173 | 0.0 | 0.0 | 0.00 | 0.00 | 0.00 | 89 | 987.5 |
| 20260905071036 | 62 | 173 | 0.0 | 0.0 | 0.00 | 0.00 | 0.00 | 90 | 987.6 |
| 20260905070534 | 62 | 173 | 0.0 | 0.0 | 0.00 | 0.00 | 0.00 | 90 | 987.4 |
| 20260905070040 | 62 | 173 | 0.0 | 0.0 | 0.00 | 0.00 | 0.00 | 89 | 987.5 |
| 20260905065534 | 62 | 173 | 0.0 | 1.0 | 0.00 | 0.00 | 0.00 | 89 | 987.3 |
| 20260905065033 | 62 | 173 | 0.0 | 3.0 | 0.00 | 0.00 | 0.00 | 90 | 987.3 |
| 20260905064535 | 62 | 173 | 1.0 | 3.0 | 0.00 | 0.00 | 0.00 | 89 | 987.3 |
| 20260905064033 | 62 | 173 | 0.0 | 0.0 | 0.00 | 0.00 | 0.00 | 90 | 987.3 |
| 20260905063532 | 62 | 173 | 0.0 | 0.0 | 0.00 | 0.00 | 0.00 | 89 | 987.3 |
| 20260905063034 | 62 | 173 | 0.0 | 0.0 | 0.00 | 0.00 | 0.00 | 89 | 987.2 |
| 20260905062532 | 62 | 173 | 0.0 | 0.0 | 0.00 | 0.00 | 0.00 | 90 | 987.2 |
| 20260905062033 | 62 | 173 | 0.0 | 0.0 | 0.00 | 0.00 | 0.00 | 89 | 987.2 |
| 20260905061532 | 62 | 173 | 0.0 | 0.0 | 0.00 | 0.00 | 0.00 | 89 | 987.2 |
| 20260905061034 | 62 | 173 | 0.0 | 0.0 | 0.00 | 0.00 | 0.00 | 89 | 987.1 |
| 20260905060535 | 62 | 173 | 0.0 | 0.0 | 0.00 | 0.00 | 0.00 | 88 | 987.1 |
| 20260905060044 | 63 | 173 | 0.0 | 0.0 | 0.00 | 0.00 | 0.00 | 89 | 987.0 |
| 20260905055534 | 63 | 173 | 0.0 | 0.0 | 0.00 | 0.00 | 0.00 | 89 | 987.1 |
| 20260905055032 | 63 | 173 | 0.0 | 0.0 | 0.00 | 0.00 | 0.00 | 90 | 987.0 |
| 20260905054537 | 63 | 173 | 0.0 | 0.0 | 0.00 | 0.00 | 0.00 | 89 | 987.1 |
| 20260905054035 | 64 | 173 | 0.0 | 0.0 | 0.00 | 0.00 | 0.00 | 89 | 987.1 |
| 20260905053533 | 64 | 173 | 0.0 | 0.0 | 0.00 | 0.00 | 0.00 | 89 | 987.0 |
| 20260905053031 | 64 | 173 | 0.0 | 0.0 | 0.00 | 0.00 | 0.00 | 89 | 987.0 |
| 20260905052530 | 64 | 173 | 0.0 | 0.0 | 0.00 | 0.00 | 0.00 | 89 | 987.1 |
| 20260905052030 | 64 | 173 | 0.0 | 0.0 | 0.00 | 0.00 | 0.00 | 89 | 987.1 |
| 20260905051540 | 64 | 173 | 0.0 | 0.0 | 0.00 | 0.00 | 0.00 | 89 | 987.1 |
| 20260905051030 | 64 | 173 | 0.0 | 0.0 | 0.00 | 0.00 | 0.00 | 88 | 987.0 |
| 20260905050530 | 64 | 173 | 0.0 | 0.0 | 0.00 | 0.00 | 0.00 | 88 | 987.2 |
| 20260905050030 | 64 | 173 | 0.0 | 0.0 | 0.00 | 0.00 | 0.00 | 88 | 987.1 |
| 20260905045530 | 64 | 173 | 0.0 | 0.0 | 0.00 | 0.00 | 0.00 | 88 | 987.1 |
| 20260905045032 | 65 | 173 | 0.0 | 1.0 | 0.00 | 0.00 | 0.00 | 88 | 987.0 |
| 20260905044537 | 65 | 173 | 0.0 | 1.0 | 0.00 | 0.00 | 0.00 | 88 | 987.0 |
| 20260905044029 | 65 | 173 | 0.0 | 0.0 | 0.00 | 0.00 | 0.00 | 87 | 987.1 |
| 20260905043529 | 65 | 173 | 0.0 | 0.0 | 0.00 | 0.00 | 0.00 | 87 | 987.0 |
| 20260905043033 | 65 | 173 | 0.0 | 0.0 | 0.00 | 0.00 | 0.00 | 87 | 987.0 |
| 20260905042528 | 65 | 173 | 0.0 | 0.0 | 0.00 | 0.00 | 0.00 | 86 | 986.9 |
| 20260905042028 | 65 | 173 | 0.0 | 0.0 | 0.00 | 0.00 | 0.00 | 87 | 986.9 |
| 20260905041531 | 65 | 173 | 0.0 | 0.0 | 0.00 | 0.00 | 0.00 | 86 | 986.8 |
| 20260905041028 | 65 | 173 | 0.0 | 1.0 | 0.00 | 0.00 | 0.00 | 86 | 986.8 |
| 20260905040530 | 65 | 173 | 0.0 | 2.0 | 0.00 | 0.00 | 0.00 | 86 | 986.9 |
| 20260905040035 | 65 | 173 | 0.0 | 2.0 | 0.00 | 0.00 | 0.00 | 85 | 986.8 |
| 20260905035528 | 66 | 173 | 0.0 | 1.0 | 0.00 | 0.00 | 0.00 | 85 | 986.7 |
| 20260905035028 | 66 | 173 | 0.0 | 1.0 | 0.00 | 0.00 | 0.00 | 84 | 986.7 |
| 20260905034528 | 66 | 173 | 0.0 | 2.0 | 0.00 | 0.00 | 0.00 | 85 | 986.7 |
| 20260905034028 | 66 | 173 | 0.0 | 2.0 | 0.00 | 0.00 | 0.00 | 84 | 986.6 |
| 20260905033527 | 66 | 173 | 0.0 | 0.0 | 0.00 | 0.00 | 0.00 | 85 | 986.6 |
| 20260905033028 | 67 | 173 | 0.0 | 0.0 | 0.00 | 0.00 | 0.00 | 84 | 986.7 |
| 20260905032528 | 67 | 173 | 0.0 | 0.0 | 0.00 | 0.00 | 0.00 | 84 | 986.6 |
| 20260905032027 | 67 | 173 | 0.0 | 0.0 | 0.00 | 0.00 | 0.00 | 84 | 986.5 |
| 20260905031536 | 67 | 173 | 0.0 | 0.0 | 0.00 | 0.00 | 0.00 | 83 | 986.5 |
| 20260905031027 | 67 | 173 | 0.0 | 0.0 | 0.00 | 0.00 | 0.00 | 83 | 986.4 |
| 20260905030526 | 68 | 173 | 0.0 | 0.0 | 0.00 | 0.00 | 0.00 | 83 | 986.4 |
| 20260905030026 | 68 | 173 | 0.0 | 0.0 | 0.00 | 0.00 | 0.00 | 82 | 986.3 |
| 20260905025528 | 68 | 173 | 0.0 | 0.0 | 0.00 | 0.00 | 0.00 | 82 | 986.4 |
| 20260905025027 | 68 | 173 | 0.0 | 0.0 | 0.00 | 0.00 | 0.00 | 82 | 986.5 |
| 20260905024526 | 68 | 173 | 0.0 | 0.0 | 0.00 | 0.00 | 0.00 | 82 | 986.4 |
| 20260905024025 | 69 | 173 | 0.0 | 0.0 | 0.00 | 0.00 | 0.00 | 82 | 986.3 |
| 20260905023532 | 69 | 173 | 0.0 | 2.0 | 0.00 | 0.00 | 0.00 | 81 | 986.4 |
| 20260905023028 | 69 | 173 | 0.0 | 3.0 | 0.00 | 0.00 | 0.00 | 81 | 986.4 |